Volver al catálogo

POPSAT HIP 1

ActivoCienciaPO
NORAD 40028·PAYLOAD·🇸🇬 Singapore

Lanzado Jun 19, 2014 desde Dombarovsky

Loading…

Próximos Pases (próximas 24 horas)

TLE

ActualizadoSource: Space-Track

Época: Sep 14, 2026, 23:46 UTC

1 40028U 14033U   26257.99040919  .00004461  00000-0  23472-3 0  9994
2 40028  98.0991 274.8210 0005232 241.7041 118.3663 15.16214066666409

Sigue POPSAT HIP 1 en tiempo real con AllMySat

Download on the App Store